Torna al catalogo

TIROS 4

AttivoMeteoLEO
NORAD 226·PAYLOAD·🇺🇸 United States

Lanciato Feb 8, 1962 da Cape Canaveral Space Force Station

Loading…

Prossimi Passaggi (prossime 24 ore)

TLE

AggiornatoSource: Space-Track

Epoca: Sep 14, 2026, 05:40 UTC

1 00226U 62002A   26257.23656729  .00000010  00000-0  48375-4 0  9994
2 00226  48.2974 327.6436 0076619 259.3615  99.8648 14.47216054381344

Traccia TIROS 4 in tempo reale con AllMySat

Download on the App Store